[[{"header":{"parameterUnit":"m.s-1","parameterCategory":1,"la1":30.2991,"la2":30.254,"lo1":-89.0895,"lo2":-89.0444,"dy":0.0017,"dx":0.0017,"nx":28,"ny":28,"refTime":"2025-07-08T03:00:00:Z","depth":0,"parameterNumber":2,"parameterNumberName":"U-component_of_WINDS"},"data":[0,0,0,0,0,0,0,0,0,0,0,0,0,0,0,0,0,0,0,0,0,0,0,0,0,0,0,0,0,0,0,0,0,0,0,0,0,0,0,0,0,0,0,0,0,0,0,0,0,0,0,0,0,0,0,0,0,0,3.4707,3.4708,0,3.4782,3.4783,3.4784,3.4724,3.4721,3.4719,3.4716,3.4792,3.4796,3.4801,0,0,0,0,0,0,0,0,0,0,0,0,0,3.4508,3.4512,3.4707,3.4708,3.4709,3.4782,3.4783,3.4784,3.4724,3.4721,3.4718,3.4715,3.4791,3.4796,3.4801,0,0,0,0,0,0,0,0,0,0,0,0,0,3.459,3.4513,3.4707,3.4688,3.4687,3.4782,3.4783,3.4785,3.4725,3.4721,3.4717,3.4714,3.4789,3.4795,3.4802,3.4919,0,0,3.4822,3.4825,0,0,0,0,0,0,0,0,3.4585,3.4597,3.469,3.4689,3.4688,3.474,3.4741,3.483,3.4726,3.471,3.4716,3.4712,3.4778,3.4785,3.4807,3.4923,3.4926,3.4823,3.4827,3.4829,3.4831,0,0,0,0,0,0,0,3.458,3.4594,3.4737,3.4691,3.469,3.4674,3.4682,3.4757,3.4765,3.4711,3.4707,3.4717,3.4777,3.4801,3.4809,3.4927,3.4822,3.4828,3.4832,3.4835,3.514,3.5144,0,0,0,0,0,0,3.4576,3.4589,3.4734,3.4739,3.4626,3.4681,3.469,3.4727,3.4764,3.4765,3.472,3.4714,3.4792,3.4801,3.4811,3.4948,3.4829,3.4836,3.4839,3.5136,3.5141,3.5145,0,0,0,0,0,0,3.4572,3.459,3.4731,3.4663,3.468,3.4689,3.4731,3.4731,3.4755,3.477,3.4771,3.4744,3.4789,3.4802,3.4892,3.495,3.4838,3.4844,3.5131,3.5137,3.5143,3.5226,0,0,0,0,0,0,3.4567,3.4589,3.4634,3.4665,3.4684,3.4812,3.4735,3.4735,3.4767,3.4759,3.4793,3.4795,3.4787,3.4883,3.4899,3.4957,3.485,3.5126,3.5134,3.5141,3.5218,3.5234,3.5248,0,0,0,0,0,3.456,3.4655,3.4637,3.4655,3.4741,3.4816,3.4826,3.4816,3.4772,3.4817,3.4826,3.4794,3.4942,3.4893,3.491,3.4972,3.5122,3.5132,3.5141,3.5211,3.5231,3.5248,0,0,0,0,0,0,3.463,3.4658,3.4639,3.4746,3.4779,3.4805,3.4861,3.4838,3.4883,3.4874,3.4859,3.4867,3.4961,3.4976,3.492,3.5086,3.5025,3.5038,3.5072,3.5091,3.5106,3.5099,3.4855,0,0,0,0,0,3.4659,3.4718,3.4739,3.4831,3.4849,3.4853,3.4885,3.4874,3.4907,3.492,3.4937,3.4969,3.5023,3.5058,3.5109,3.5221,3.5226,3.5272,3.5287,3.5299,3.531,3.5367,3.5387,3.5176,3.5176,3.5176,0,0,3.4717,3.474,3.4778,3.4846,3.487,3.493,3.4865,3.4932,3.4975,3.493,3.5016,3.5029,3.5065,3.5166,3.5211,3.518,3.5369,3.5311,3.5321,3.5324,3.5378,3.5398,3.5416,3.5182,3.5181,3.518,0,0,3.4853,3.4878,3.4956,3.4982,3.5019,3.5021,3.504,3.507,3.5077,3.5163,3.5129,3.5182,3.5275,3.5301,3.5326,3.5472,3.5443,3.5489,3.5567,3.5623,3.5639,3.5654,3.5703,3.5721,3.5501,3.5501,3.5501,0,3.492,3.501,3.4999,3.5068,3.5098,3.5061,3.5139,3.5165,3.5217,3.5238,3.5204,3.5319,3.534,3.5445,3.5481,3.5504,3.5523,3.5484,3.5638,3.5652,3.5666,3.5712,3.5731,3.5506,3.5505,3.5505,3.5504,0,3.509,3.5153,3.5212,3.5262,3.53,3.5373,3.5372,3.5411,3.5397,3.5402,3.5489,3.5514,3.5567,3.5592,3.558,3.5695,3.5675,3.564,3.5577,3.5691,3.5734,3.5752,3.5513,3.5511,3.551,3.5509,0,0,3.527,3.5314,3.5336,3.5357,3.5396,3.5444,3.5515,3.5568,3.56,3.5638,3.5695,3.5775,3.5743,3.5771,3.5762,3.5812,3.5922,3.577,3.577,3.5794,3.6047,3.607,3.6091,3.5904,3.5907,3.591,3.6042,0,3.5406,3.553,3.5522,3.5638,3.5694,3.566,3.5722,3.5752,3.5759,3.5807,3.5814,3.587,3.5824,3.5841,3.5889,3.5898,3.5971,3.5889,3.5955,3.5957,3.5943,3.6114,3.6139,3.6263,3.6059,3.6062,3.6065,0,3.5579,3.5622,3.5744,3.5773,3.5796,3.5852,3.5898,3.5946,3.5978,3.598,3.6012,3.5994,3.6064,3.6003,3.6098,3.6042,3.6069,3.6078,3.6082,3.6085,3.6015,3.6118,3.6302,3.632,3.6092,3.6089,3.6088,0,3.5694,3.5783,3.5867,3.5887,3.5923,3.5963,3.598,3.6008,3.604,3.6081,3.6101,3.615,3.6176,3.6214,3.6209,3.6165,3.6305,3.6244,3.6305,3.6306,3.6334,3.6331,3.6521,3.6357,3.6357,3.6357,3.6356,0,3.5844,3.5919,3.5919,3.597,3.6052,3.6043,3.6124,3.6136,3.6162,3.6214,3.6189,3.6238,3.623,3.6278,3.6275,3.6353,3.6366,3.6367,3.6364,3.6367,3.6367,3.6382,3.6372,3.6362,3.6361,3.636,3.6359,0,3.5985,3.5988,3.6077,3.6104,3.6113,3.6172,3.6194,3.6242,3.6247,3.6313,3.6328,3.6336,3.6391,3.6391,3.6455,3.6453,3.6547,3.6536,3.6535,3.6532,3.6593,3.6586,3.6796,3.6822,3.6645,3.6647,3.6648,0,3.6079,3.6135,3.6169,3.6202,3.6221,3.6275,3.6307,3.63,3.6334,3.6375,3.6417,3.6471,3.6513,3.6604,3.6614,3.6663,3.6651,3.6722,3.6658,3.6658,3.6648,3.6643,3.6647,3.6733,3.6735,3.6736,3.6738,0,3.6243,3.6242,3.6289,3.6338,3.6376,3.6414,3.6448,3.6477,3.6473,3.6513,3.657,3.6603,3.6668,3.672,3.6767,3.6783,3.6759,3.6758,3.6774,3.6776,3.6772,3.6771,3.6565,3.6753,3.6751,3.675,3.6749,3.6749,3.6361,3.6409,3.6439,3.6492,3.6518,3.655,3.6596,3.6607,3.6654,3.6706,3.67,3.6762,3.6792,3.6852,3.6873,3.692,3.6895,3.692,3.6925,3.6931,3.6935,3.6767,3.6929,3.6929,3.6929,3.6928,3.6928,0,3.6521,3.6539,3.6588,3.6637,3.6679,3.6655,3.6691,3.6727,3.6783,3.6813,3.6855,3.6919,3.697,3.6985,3.7034,3.7069,3.706,3.7082,3.7077,3.7081,3.6957,3.6936,3.7089,3.7089,3.7089,3.7089,3.7089,3.7089,3.6608,3.6687,3.669,3.678,3.6797,3.6859,3.6881,3.6911,3.6934,3.7008,3.705,3.706,3.7083,3.7133,3.7178,3.7181,3.7199,3.7225,3.7223,3.7106,3.709,3.7074,3.7055,3.723,3.723,3.7342,3.7344,3.7344]},{"header":{"parameterUnit":"m.s-1","parameterCategory":1,"la1":30.2991,"la2":30.254,"lo1":-89.0895,"lo2":-89.0444,"dy":0.0017,"dx":0.0017,"nx":28,"ny":28,"refTime":"2025-07-08T03:00:00:Z","depth":0,"parameterNumber":3,"parameterNumberName":"V-component_of_WINDS"},"data":[0,0,0,0,0,0,0,0,0,0,0,0,0,0,0,0,0,0,0,0,0,0,0,0,0,0,0,0,0,0,0,0,0,0,0,0,0,0,0,0,0,0,0,0,0,0,0,0,0,0,0,0,0,0,0,0,0,0,1.6623,1.6625,0,1.6798,1.68,1.6802,1.685,1.6849,1.6848,1.6847,1.7028,1.7034,1.7039,0,0,0,0,0,0,0,0,0,0,0,0,0,1.6334,1.6339,1.6623,1.6625,1.6628,1.6797,1.68,1.6802,1.685,1.6849,1.6848,1.6847,1.7026,1.7033,1.704,0,0,0,0,0,0,0,0,0,0,0,0,0,1.6479,1.6341,1.6623,1.6672,1.6678,1.6797,1.68,1.6803,1.6851,1.6849,1.6848,1.6846,1.7024,1.7032,1.7041,1.7123,0,0,1.7067,1.7071,0,0,0,0,0,0,0,0,1.6471,1.649,1.6663,1.6669,1.6676,1.6801,1.6764,1.691,1.6851,1.6785,1.6847,1.6846,1.6954,1.6968,1.7004,1.7132,1.714,1.7068,1.7073,1.7077,1.7079,0,0,0,0,0,0,0,1.6461,1.6483,1.6692,1.6665,1.6673,1.6686,1.6705,1.6792,1.6876,1.6791,1.6795,1.6815,1.6957,1.6996,1.7009,1.7142,1.7068,1.7075,1.7081,1.7084,1.7346,1.7348,0,0,0,0,0,0,1.6442,1.6474,1.6687,1.6698,1.6568,1.6692,1.6714,1.6762,1.6875,1.6891,1.6816,1.6816,1.6982,1.6999,1.7015,1.7119,1.7077,1.7085,1.709,1.7344,1.7346,1.7348,0,0,0,0,0,0,1.6436,1.6461,1.668,1.6587,1.6616,1.6699,1.6753,1.6766,1.6805,1.6894,1.6909,1.684,1.6981,1.7003,1.7096,1.7126,1.7089,1.7096,1.7342,1.7345,1.7347,1.7327,0,0,0,0,0,0,1.6427,1.6458,1.649,1.6587,1.662,1.6757,1.6755,1.6771,1.6819,1.6822,1.692,1.6935,1.6982,1.7083,1.7104,1.7137,1.7103,1.734,1.7343,1.7346,1.7326,1.7329,1.7332,0,0,0,0,0,1.6417,1.6478,1.6491,1.6517,1.6662,1.6759,1.6778,1.683,1.6822,1.6855,1.6911,1.6932,1.7119,1.7092,1.7117,1.7152,1.7338,1.7342,1.7346,1.7324,1.7328,1.7332,0,0,0,0,0,0,1.6384,1.6492,1.6508,1.6602,1.6671,1.6767,1.681,1.6832,1.6905,1.6905,1.6966,1.6988,1.7076,1.7124,1.7092,1.7238,1.7229,1.7238,1.7204,1.7208,1.7211,1.7198,1.711,0,0,0,0,0,1.6387,1.6456,1.6547,1.6622,1.6655,1.6726,1.6771,1.6804,1.6878,1.6908,1.6971,1.7042,1.7117,1.7165,1.7239,1.7332,1.7354,1.7369,1.7372,1.7374,1.7382,1.7434,1.7441,1.7362,1.7362,1.7361,0,0,1.6396,1.6463,1.6503,1.6617,1.6674,1.6744,1.6751,1.6825,1.6878,1.6919,1.701,1.7059,1.7143,1.7236,1.728,1.7278,1.7408,1.7379,1.738,1.7387,1.7439,1.7446,1.7453,1.7364,1.7364,1.7363,0,0,1.6447,1.6505,1.6573,1.663,1.6715,1.6762,1.6778,1.6871,1.6905,1.6997,1.7029,1.7093,1.722,1.7279,1.7325,1.7396,1.7418,1.7418,1.7435,1.7485,1.7491,1.7497,1.7522,1.7531,1.7425,1.7425,1.7425,0,1.6447,1.6554,1.6606,1.6678,1.6727,1.6766,1.6836,1.6889,1.6994,1.7027,1.7023,1.7183,1.7243,1.7349,1.7366,1.7403,1.7423,1.7408,1.7486,1.7492,1.7499,1.7524,1.7533,1.7425,1.7425,1.7425,1.7425,0,1.6549,1.6622,1.6667,1.6767,1.6821,1.6892,1.6955,1.7003,1.7032,1.7079,1.7172,1.7244,1.7332,1.736,1.7389,1.7471,1.7467,1.7474,1.7466,1.7505,1.7529,1.7539,1.7424,1.7424,1.7424,1.7425,0,0,1.6586,1.6712,1.6728,1.6773,1.687,1.6928,1.7,1.7086,1.7126,1.7197,1.7259,1.7365,1.7372,1.7424,1.746,1.7504,1.7555,1.7505,1.7508,1.7512,1.7649,1.7644,1.7654,1.7569,1.7571,1.7573,1.7642,0,1.665,1.6779,1.6828,1.6934,1.7002,1.704,1.7102,1.7169,1.7214,1.7279,1.733,1.7404,1.7407,1.7438,1.7483,1.7539,1.7583,1.7535,1.7628,1.7631,1.7606,1.7667,1.7662,1.7724,1.7652,1.7654,1.7655,0,1.6742,1.6812,1.6925,1.7012,1.7042,1.7098,1.718,1.7241,1.7317,1.7347,1.7404,1.7437,1.7514,1.75,1.7607,1.7573,1.7614,1.7647,1.7651,1.7662,1.7646,1.768,1.7745,1.7754,1.767,1.7669,1.7668,0,1.6757,1.6881,1.6964,1.7001,1.7105,1.7143,1.7188,1.7262,1.731,1.7382,1.7414,1.7493,1.7537,1.7598,1.7652,1.7637,1.7753,1.7745,1.7781,1.778,1.7805,1.7802,1.7877,1.783,1.783,1.783,1.7829,0,1.6823,1.6891,1.6972,1.7023,1.71,1.7154,1.7229,1.7277,1.7342,1.7403,1.744,1.7497,1.7564,1.7629,1.7672,1.7753,1.7773,1.78,1.781,1.7797,1.7793,1.7825,1.7822,1.7832,1.7832,1.7831,1.7831,0,1.6854,1.6911,1.7004,1.7094,1.7118,1.717,1.7248,1.7299,1.7345,1.7422,1.7444,1.7517,1.7596,1.7655,1.7757,1.7785,1.7873,1.7884,1.7847,1.7852,1.7885,1.7881,1.7983,1.7999,1.7941,1.7941,1.7942,0,1.6893,1.6945,1.704,1.7083,1.7128,1.7197,1.7246,1.7301,1.7351,1.744,1.748,1.7561,1.7629,1.7754,1.7816,1.7895,1.7908,1.7938,1.792,1.7904,1.7908,1.7905,1.791,1.7941,1.7941,1.7941,1.7941,0,1.6955,1.698,1.7049,1.7127,1.7183,1.7248,1.7313,1.7346,1.7413,1.7467,1.7547,1.76,1.7703,1.7784,1.7868,1.7915,1.794,1.7946,1.7959,1.7946,1.7923,1.7936,1.7854,1.7944,1.7944,1.7944,1.7944,1.7943,1.6992,1.704,1.7114,1.7188,1.7242,1.7302,1.7354,1.7406,1.7474,1.7562,1.7591,1.7674,1.7748,1.7863,1.7911,1.7977,1.7977,1.7995,1.8,1.8003,1.8002,1.7911,1.7992,1.7992,1.7992,1.7992,1.7992,0,1.7056,1.7105,1.7173,1.7262,1.732,1.7337,1.741,1.7458,1.753,1.7596,1.7661,1.7753,1.7831,1.7899,1.7979,1.8019,1.8032,1.8038,1.8036,1.8047,1.7998,1.7979,1.8026,1.8026,1.8026,1.8026,1.8026,1.8026,1.7097,1.7179,1.7212,1.7322,1.737,1.7451,1.7491,1.7546,1.7599,1.77,1.7764,1.7807,1.7874,1.7959,1.8031,1.8049,1.8077,1.808,1.8101,1.8054,1.805,1.8046,1.8029,1.8086,1.8086,1.8145,1.8145,1.8146]}]]